Hourly Data Report for October 12, 2000

SHERBROOKE A
QUEBEC

45°26'00.000" N
71°41'00.000" W
241.40 m
7028124
71610
YSC

Download Data

Hourly Data (October 2000)
Hourly Data Report for October 12, 2000
TIME
LST
Temp Definition
°C
Dew Point Definition
°C
Rel Hum Definition
%
Precip. Amount Definition
mm

Wind Dir Definition
10's deg

Wind Spd Definition
km/h
Visibility Definition
km
Stn Press Definition
kPa
Hmdx Definition


Wind Chill Definition


Weather Definition


00:00 0.2 -1.1 91   23 6 15.0 99.02      
01:00 0.9 -0.6 90   22 7 15.0 99.02      
02:00 -1.1 -2.3 92     0 15.0 99.02      
03:00 -2.3 -3.3 93     0 15.0 99.08      
04:00 -2.2 -2.8 96   9 4 15.0 99.12   -4  
05:00 -2.8 -3.8 93   8 4 15.0 99.15   -4  
06:00 -2.9 -3.7 94     0 15.0 99.18      
07:00 -0.1 -1.0 94     0 24.1 99.22     Clear
08:00 5.1 2.0 80     0 24.1 99.25     Clear
09:00 9.5 2.5 62   21 7 24.1 99.22     Clear
10:00 13.0 2.8 50   23 15 24.1 99.18     Clear
11:00 14.6 2.9 45   23 19 24.1 99.12     Mainly Clear
12:00 16.2 2.3 39   23 20 24.1 99.02     Mainly Clear
13:00 17.2 2.2 36   24 24 24.1 98.92     Mainly Clear
14:00 17.6 2.6 37   23 22 24.1 98.85     Mainly Clear
15:00 17.4 3.0 38   25 19 24.1 98.79     Mainly Clear
16:00 16.5 3.9 43   24 19 24.1 98.75     Mainly Clear
17:00 14.0 4.4 52   23 9 15.0 98.72      
18:00 12.5 4.5 58   23 11 15.0 98.75      
19:00 10.7 4.5 65   21 9 15.0 98.75      
20:00 10.3 5.0 70   21 9 15.0 98.79      
21:00 9.7 4.8 71   21 9 15.0 98.82      
22:00 10.0 3.5 64   21 11 15.0 98.85      
23:00 10.3 2.9 60   22 15 15.0 98.82      

Notes on Data Quality.

Legend

  • E = Estimated
  • M = Missing
  • NA = Not Available*
  • [empty] = Indicates an unobserved value
Date modified: